Lobo

Go HERE for most recent data if this page is not up to date.

Jump to table bottom
Date/Time Temp deg F RH % 24 Hr Snow (in) Snow Depth (in) H2O (in)
05/18 08:00 46.9 43 "NAN" 24.8 0.00
05/18 07:00 45.0 44 "NAN" 25.0 0.00
05/18 06:00 46.1 48 "NAN" 25.1 0.00
05/18 05:00 45.1 44 "NAN" 24.8 0.00
05/18 04:00 45.4 51 "NAN" 24.8 0.00
05/18 03:00 46.3 49 "NAN" 24.9 0.00
05/18 02:00 47.2 47 "NAN" 24.8 0.00
05/18 01:00 47.3 47 "NAN" 24.8 0.00
05/18 00:00 47.7 38 "NAN" 24.5 0.00
05/17 23:00 49.8 35 "NAN" 24.6 0.00
05/17 22:00 50.2 30 "NAN" 24.5 0.00
05/17 21:00 51.1 23 "NAN" 24.3 0.00
05/17 20:00 52.0 24 "NAN" 24.3 0.00
05/17 19:00 53.7 26 "NAN" 24.2 0.00
05/17 18:00 55.2 26 "NAN" 24.0 0.00
05/17 17:00 55.9 24 "NAN" 23.9 0.00
05/17 16:00 57.1 22 "NAN" 24.1 0.00
05/17 15:00 57.3 19 "NAN" 24.1 0.00
05/17 14:00 56.6 22 "NAN" 25.0 0.00
05/17 13:00 54.6 23 "NAN" 25.3 0.00
05/17 12:00 54.8 19 "NAN" 25.9 0.00
05/17 11:00 51.1 26 "NAN" 26.3 0.00
05/17 10:00 48.4 31 "NAN" 26.6 0.00
05/17 09:00 45.7 50 "NAN" 27.0 0.00
05/17 08:00 42.7 50 "NAN" 27.4 0.00
05/17 07:00 41.6 56 "NAN" 27.6 0.00
05/17 06:00 40.9 55 "NAN" 27.5 0.00
05/17 05:00 42.7 56 "NAN" 27.4 0.00
05/17 04:00 41.8 53 "NAN" 27.5 0.00
05/17 03:00 42.0 57 "NAN" 27.7 0.00
05/17 02:00 43.4 56 "NAN" 27.4 0.00
05/17 01:00 43.2 51 "NAN" 27.1 0.00
05/17 00:00 43.7 51 "NAN" 27.5 0.00
.